• Em Portugal
  • Lista de países
  • Para 7 dias
  • Temperatura da água
  • Mapas de satélite
  • Mapa do tempo
  • Widgets de tempo
  • user-avatar
    Iniciar Sessão

    Previsão horária em Darkhan

    Hoje, 23 Fevereiro, Sexta-feira

    Tempo Temperatura Precipitação Vento Pressão Humidade
    00:00 -19°C° 0 mm 1 m/s 685 mmHg 95%
    01:00 -20°C° 0 mm 0 m/s 685 mmHg 96%
    02:00 -21°C° 0 mm 1 m/s 686 mmHg 94%
    03:00 -21°C° 0 mm 1 m/s 686 mmHg 93%
    04:00 -21°C° 0 mm 1 m/s 687 mmHg 92%
    05:00 -21°C° 0 mm 1 m/s 687 mmHg 91%
    06:00 -21°C° 0 mm 1 m/s 688 mmHg 90%
    07:00 -25°C° 0 mm 2 m/s 688 mmHg 88%
    08:00 -23°C° 0 mm 2 m/s 688 mmHg 86%
    09:00 -20°C° 0 mm 2 m/s 688 mmHg 84%
    10:00 -18°C° 0 mm 2 m/s 689 mmHg 82%
    11:00 -17°C° 0 mm 3 m/s 688 mmHg 79%
    12:00 -16°C° 0 mm 3 m/s 688 mmHg 76%
    13:00 -15°C° 0 mm 3 m/s 688 mmHg 73%
    14:00 -15°C° 0 mm 3 m/s 688 mmHg 76%
    15:00 -14°C° 0 mm 2 m/s 688 mmHg 78%
    16:00 -14°C° 0 mm 2 m/s 688 mmHg 80%
    17:00 -15°C° 0 mm 2 m/s 688 mmHg 80%
    18:00 -17°C° 0 mm 2 m/s 688 mmHg 81%
    19:00 -18°C° 0 mm 3 m/s 688 mmHg 81%
    20:00 -18°C° 0 mm 2 m/s 688 mmHg 82%
    21:00 -18°C° 0 mm 2 m/s 688 mmHg 82%
    22:00 -19°C° 0 mm 2 m/s 688 mmHg 82%
    23:00 -19°C° 0 mm 2 m/s 688 mmHg 83%

    Amanhã, 24 Fevereiro, Sábado

    Tempo Temperatura Precipitação Vento Pressão Humidade
    00:00 -19°C° 0 mm 2 m/s 688 mmHg 83%
    01:00 -19°C° 0 mm 2 m/s 687 mmHg 83%
    02:00 -20°C° 0 mm 2 m/s 687 mmHg 83%
    03:00 -20°C° 0 mm 2 m/s 687 mmHg 84%
    04:00 -20°C° 0 mm 2 m/s 687 mmHg 84%
    05:00 -20°C° 0 mm 2 m/s 687 mmHg 84%
    06:00 -18°C° 0 mm 1 m/s 687 mmHg 84%
    07:00 -18°C° 0 mm 1 m/s 686 mmHg 85%
    08:00 -16°C° 0 mm 1 m/s 687 mmHg 83%
    09:00 -14°C° 0 mm 1 m/s 687 mmHg 81%
    10:00 -13°C° 0 mm 1 m/s 687 mmHg 79%
    11:00 -11°C° 0 mm 1 m/s 686 mmHg 78%
    12:00 -10°C° 0 mm 1 m/s 686 mmHg 77%
    13:00 -9°C° 0 mm 1 m/s 686 mmHg 76%
    14:00 -9°C° 0 mm 1 m/s 686 mmHg 79%
    15:00 -10°C° 0 mm 1 m/s 686 mmHg 81%
    16:00 -10°C° 0 mm 1 m/s 685 mmHg 84%
    17:00 -11°C° 0 mm 1 m/s 685 mmHg 84%
    18:00 -12°C° 0 mm 1 m/s 685 mmHg 84%
    19:00 -16°C° 0 mm 2 m/s 685 mmHg 84%
    20:00 -16°C° 0 mm 2 m/s 685 mmHg 83%
    21:00 -16°C° 0 mm 2 m/s 685 mmHg 83%
    22:00 -16°C° 0 mm 2 m/s 685 mmHg 82%
    23:00 -17°C° 0 mm 2 m/s 685 mmHg 82%

    Depois de amanhã, 25 Fevereiro, Domingo

    Tempo Temperatura Precipitação Vento Pressão Humidade
    00:00 -17°C° 0 mm 2 m/s 685 mmHg 82%
    01:00 -17°C° 0 mm 2 m/s 684 mmHg 81%
    02:00 -15°C° 0 mm 1 m/s 684 mmHg 81%
    03:00 -15°C° 0 mm 1 m/s 684 mmHg 81%
    04:00 -16°C° 0 mm 1 m/s 683 mmHg 80%
    05:00 -16°C° 0 mm 1 m/s 683 mmHg 80%
    06:00 -16°C° 0 mm 1 m/s 683 mmHg 79%
    07:00 -16°C° 0 mm 1 m/s 683 mmHg 79%
    08:00 -14°C° 0 mm 1 m/s 683 mmHg 77%
    09:00 -12°C° 0 mm 0 m/s 683 mmHg 75%
    10:00 -10°C° 0 mm 0 m/s 683 mmHg 72%
    11:00 -9°C° 0 mm 0 m/s 683 mmHg 72%
    12:00 -8°C° 0 mm 0 m/s 683 mmHg 71%
    13:00 -7°C° 0 mm 0 m/s 682 mmHg 71%
    14:00 -7°C° 0 mm 1 m/s 682 mmHg 76%
    15:00 -8°C° 0 mm 1 m/s 682 mmHg 81%
    16:00 -8°C° 0 mm 1 m/s 682 mmHg 86%
    17:00 -9°C° 0,2 mm 1 m/s 682 mmHg 89%
    18:00 -9°C° 0,2 mm 1 m/s 682 mmHg 93%
    19:00 -10°C° 0,2 mm 1 m/s 683 mmHg 96%
    20:00 -11°C° 0,2 mm 1 m/s 683 mmHg 96%
    21:00 -11°C° 0,2 mm 1 m/s 683 mmHg 96%
    22:00 -13°C° 0,2 mm 2 m/s 684 mmHg 96%
    23:00 -14°C° 0,1 mm 2 m/s 685 mmHg 96%

    26 Fevereiro, Segunda-feira

    Tempo Temperatura Precipitação Vento Pressão Humidade
    00:00 -12°C° 0,1 mm 1 m/s 685 mmHg 96%
    01:00 -12°C° 0,1 mm 1 m/s 686 mmHg 96%
    02:00 -12°C° 0,1 mm 1 m/s 686 mmHg 96%
    03:00 -13°C° 0,1 mm 1 m/s 687 mmHg 95%
    04:00 -13°C° 0,1 mm 1 m/s 687 mmHg 95%
    05:00 -13°C° 0,1 mm 1 m/s 688 mmHg 94%
    06:00 -14°C° 0,1 mm 1 m/s 688 mmHg 94%
    07:00 -14°C° 0,1 mm 1 m/s 689 mmHg 93%
    08:00 -13°C° 0 mm 1 m/s 689 mmHg 90%
    09:00 -12°C° 0 mm 1 m/s 689 mmHg 87%
    10:00 -11°C° 0 mm 1 m/s 690 mmHg 84%
    11:00 -10°C° 0 mm 1 m/s 689 mmHg 81%
    12:00 -10°C° 0 mm 1 m/s 689 mmHg 79%
    13:00 -9°C° 0 mm 1 m/s 689 mmHg 76%
    14:00 -9°C° 0 mm 1 m/s 688 mmHg 78%
    15:00 -9°C° 0 mm 1 m/s 688 mmHg 80%
    16:00 -10°C° 0 mm 1 m/s 688 mmHg 82%
    17:00 -11°C° 0 mm 1 m/s 687 mmHg 83%
    18:00 -13°C° 0 mm 1 m/s 687 mmHg 85%
    19:00 -14°C° 0 mm 1 m/s 687 mmHg 87%
    20:00 -14°C° 0 mm 1 m/s 687 mmHg 88%
    21:00 -15°C° 0 mm 1 m/s 687 mmHg 89%
    22:00 -15°C° 0 mm 1 m/s 687 mmHg 90%
    23:00 -15°C° 0,1 mm 1 m/s 687 mmHg 91%

    27 Fevereiro, Terça-feira

    Tempo Temperatura Precipitação Vento Pressão Humidade
    00:00 -15°C° 0,1 mm 1 m/s 686 mmHg 93%
    01:00 -15°C° 0,1 mm 1 m/s 686 mmHg 94%
    02:00 -15°C° 0,1 mm 1 m/s 686 mmHg 95%
    03:00 -15°C° 0,1 mm 0 m/s 685 mmHg 95%
    04:00 -15°C° 0,1 mm 0 m/s 685 mmHg 96%
    05:00 -16°C° 0 mm 0 m/s 685 mmHg 96%
    06:00 -17°C° 0 mm 0 m/s 685 mmHg 96%
    07:00 -17°C° 0 mm 0 m/s 684 mmHg 97%
    08:00 -16°C° 0 mm 0 m/s 684 mmHg 94%
    09:00 -14°C° 0 mm 0 m/s 684 mmHg 91%
    10:00 -13°C° 0 mm 1 m/s 684 mmHg 88%
    11:00 -12°C° 0 mm 1 m/s 683 mmHg 87%
    12:00 -11°C° 0 mm 1 m/s 682 mmHg 86%
    13:00 -12°C° 0 mm 2 m/s 682 mmHg 85%
    14:00 -13°C° 0,1 mm 2 m/s 681 mmHg 86%
    15:00 -14°C° 0,1 mm 3 m/s 681 mmHg 88%
    16:00 -14°C° 0,1 mm 3 m/s 681 mmHg 89%
    17:00 -15°C° 0,1 mm 3 m/s 681 mmHg 91%
    18:00 -16°C° 0,1 mm 3 m/s 681 mmHg 92%
    19:00 -16°C° 0,1 mm 2 m/s 682 mmHg 94%
    20:00 -17°C° 0 mm 2 m/s 682 mmHg 95%
    21:00 -19°C° 0 mm 2 m/s 682 mmHg 95%
    22:00 -20°C° 0 mm 2 m/s 682 mmHg 96%
    23:00 -21°C° 0 mm 2 m/s 682 mmHg 96%

    28 Fevereiro, Quarta-feira

    Tempo Temperatura Precipitação Vento Pressão Humidade
    00:00 -23°C° 0 mm 2 m/s 682 mmHg 96%
    01:00 -20°C° 0 mm 1 m/s 683 mmHg 95%
    02:00 -21°C° 0 mm 1 m/s 683 mmHg 95%
    03:00 -21°C° 0 mm 1 m/s 683 mmHg 95%
    04:00 -21°C° 0 mm 1 m/s 684 mmHg 95%
    05:00 -22°C° 0 mm 0 m/s 684 mmHg 95%
    06:00 -22°C° 0 mm 0 m/s 684 mmHg 95%
    07:00 -22°C° 0 mm 0 m/s 685 mmHg 95%
    08:00 -20°C° 0 mm 0 m/s 685 mmHg 91%
    09:00 -18°C° 0 mm 0 m/s 685 mmHg 87%
    10:00 -17°C° 0 mm 0 m/s 686 mmHg 83%
    11:00 -16°C° 0 mm 1 m/s 686 mmHg 81%
    12:00 -15°C° 0 mm 1 m/s 685 mmHg 78%
    13:00 -14°C° 0 mm 1 m/s 685 mmHg 75%
    14:00 -14°C° 0 mm 1 m/s 685 mmHg 77%
    15:00 -14°C° 0 mm 1 m/s 685 mmHg 79%
    16:00 -14°C° 0 mm 1 m/s 685 mmHg 82%
    17:00 -16°C° 0 mm 1 m/s 685 mmHg 84%
    18:00 -18°C° 0 mm 1 m/s 685 mmHg 87%
    19:00 -19°C° 0 mm 1 m/s 685 mmHg 89%
    20:00 -20°C° 0 mm 1 m/s 685 mmHg 90%
    21:00 -21°C° 0 mm 0 m/s 685 mmHg 90%
    22:00 -21°C° 0 mm 0 m/s 685 mmHg 91%
    23:00 -22°C° 0 mm 0 m/s 685 mmHg 91%
    Mostrar mais